Location: Recife
(8.0585°S, 34.8848°W)
Time: 12:08:32
(UTC-03:00)

Vanguard 3 - Visible Passes

Search period start: 14 April 2026 00:00
Search period end: 24 April 2026 00:00
Orbit: 508 x 3204 km, 33.3° (Epoch: 14 April)

Date Brightness Start Highest point End Pass type
(mag) Time Alt. Az. Time Alt. Az. Time Alt. Az.
14 Apr 9.0 18:53:28 10° WSW 19:04:09 45° NW 19:08:47 19° NNE visible
15 Apr 8.8 17:27:17 10° SW 17:41:56 88° NW 17:49:55 10° NE visible
15 Apr 9.8 19:47:03 10° W 19:53:01 18° NW 19:56:17 13° NNW visible
16 Apr 10.2 04:45:12 10° N 04:51:20 23° NE 05:00:20 10° E visible
16 Apr 9.4 18:19:14 10° WSW 18:31:29 47° NW 18:38:32 10° NNE visible
17 Apr 10.0 19:12:55 10° W 19:20:27 21° NW 19:25:45 10° N visible
18 Apr 10.0 04:13:28 10° N 04:18:40 21° NE 04:26:04 10° E visible
18 Apr 9.7 17:44:49 10° WSW 17:58:37 49° NW 18:06:37 10° NNE visible
19 Apr 9.5 05:00:44 10° NNW 05:07:36 48° NE 05:19:36 10° ESE visible
19 Apr 10.2 18:38:36 10° W 18:47:45 23° NW 18:54:00 10° N visible
20 Apr 9.9 03:41:50 10° N 03:46:07 18° NE 03:52:00 10° E visible
21 Apr 9.1 04:28:55 10° NNW 04:34:57 46° NE 04:45:24 10° ESE visible
21 Apr 10.4 18:04:07 10° W 18:14:52 25° NW 18:22:09 10° N visible
22 Apr 9.7 03:10:16 10° N 03:13:42 16° NE 03:18:09 10° E visible
23 Apr 8.8 03:57:09 10° NNW 04:02:27 44° NE 04:11:26 10° ESE visible
23 Apr 10.5 17:29:32 10° W 17:41:48 27° NW 17:50:10 10° N visible
